COSMOS 1867 COOLANT

Satellite information

Favourite Embed

Satellite Type and Status

DEBRISIN ORBIT

Key statistics

Satellite COSMOS 1867 COOLANT at a glance.

Uptime

14036

Days in orbit

Revolutions

≈ 14.3

Per day

Orbit

LEO

Low Earth Orbit

Inclination

65.0

Latest

Satellite identification and parameters

Extended collection of information and parameters for COSMOS 1867 COOLANT.

Object identification

Identified? True

Debris? False

Object name: COSMOS 1867 COOLANT

International designator: 1987-060AV

Object number (NORAD): 43328

Object ID (CCSDS): 43328

Country: COMMONWEALTH OF INDEPENDENT STATES (CIS)

Current information (Y/N): Y

RCS size: SMALL

Orbital parameters

Period: 100.429 minutes

Inclination: 65.0075 deg

SMA: 7157.02 km

Apoapsis: 788.848 km

Periapsis: 768.923 km

RAAN: 175.157 deg

Eccentricy: 0.001392

Argument of periapsis: 272.9042 deg

Mean anomaly: 87.045 deg

Mean motion: 14.33852215 rev/day

Mean motion (dot): 0.00000477 rev/day2

B* drag term: 0.00020677 1/REarth

Two-line elements (TLE)

Creation date: Dec. 12, 2025, 7:16 a.m.

Reference frame: TEME

Reference center: EARTH

Epoch: Dec. 11, 2025, 10:01 p.m. UTC

TLE line 0: 0 COSMOS 1867 COOLANT

TLE line 1: 1 43328U 87060AV 25345.91787573 .00000477 00000-0 20677-3 0 9990

TLE line 2: 2 43328 65.0075 175.1570 0013920 272.9042 87.0450 14.33852215601805

Live tracking on map

Real-time ground track for satellite COSMOS 1867 COOLANT.

In-orbit conjunctions

A list of the most updated potential collisions computed for object COSMOS 1867 COOLANT.

Target Orbit TCA Probability of collision Miss distance Type
NOAA 16 DEB SSO 2025-06-25 12:20:36 0.0002935952 208.0 (m) DEBRIS
CZ-6A DEB LEO 2024-12-29 04:41:58 0.0003153483 586.0 (m) DEBRIS

Associated space launch

Nuclear-powered magnetospheric research satellite

COSMOS 1867 COOLANT was lifted into orbit during the mission ‘Tsiklon-2 | Plasma-A 2’, on board a Tsiklon-2 space rocket.

The launch took place on July 10, 1987, 3:35 p.m. from 90.

For more information about the launch, click the button.

Launch to space Tsiklon-2 | Plasma-A 2
Tsiklon-2 | Plasma-A 2

Agency: N/A

Status: Launch Successful

Launch date: July 10, 1987, 3:35 p.m. UTC

Rocket: Tsiklon-2

Launch pad: 90

Location: Baikonur Cosmodrome, Republic of Kazakhstan

...

Latest news about this satellite

There are no fresh news available about this satellite. Check back as we update our databases every day.


Newsletter sign-up

Weekly statistics, charts and insights to help you stay on top of the space industry.